SM6PGP-2 Weather Reports


Display with metric or nautical units.
time (UTC)temp
F
wind
direction
speed
MPH
gust
MPH
rain 1hr
in
rain 24hr
in
rain mn
in
humidity
%
barometer
mb
20260507203728 39 90 0.0 0.0 0.00 0.00 0.00 37 1017.1
20260507203222 39 90 0.0 0.0 0.00 0.00 0.00 37 1017.2
20260507202718 39 45 0.0 0.0 0.00 0.00 0.00 37 1017.1
20260507202212 39 45 0.0 0.0 0.00 0.00 0.00 36 1017.1
20260507201707 40 45 0.0 0.0 0.00 0.00 0.00 35 1017.1
20260507201202 40 90 0.0 0.0 0.00 0.00 0.00 34 1017.1
20260507200656 40 0 0.0 2.0 0.00 0.00 0.00 34 1017.0
20260507200152 41 0 0.0 2.0 0.00 0.00 0.00 34 1016.9
20260507195646 41 31 1.0 3.0 0.00 0.00 0.00 34 1016.8
20260507194635 41 45 1.0 1.0 0.00 0.00 0.00 33 1016.8
20260507194130 42 36 1.0 2.0 0.00 0.00 0.00 31 1016.8
20260507193626 42 0 1.0 2.0 0.00 0.00 0.00 31 1016.7
20260507193120 43 45 1.0 3.0 0.00 0.00 0.00 30 1016.6
20260507192615 43 18 1.0 3.0 0.00 0.00 0.00 29 1016.6
20260507192110 44 90 1.0 3.0 0.00 0.00 0.00 29 1016.4
20260507191604 44 0 1.0 3.0 0.00 0.00 0.00 27 1016.5
20260507191100 45 351 1.0 2.0 0.00 0.00 0.18 27 1016.4
20260507190554 45 45 1.0 3.0 0.00 0.00 0.18 26 1016.3
20260507190049 46 0 2.0 3.0 0.00 0.00 0.18 25 1016.3
20260507185544 47 45 1.0 4.0 0.00 0.00 0.18 24 1016.2
20260507185038 47 0 1.0 7.0 0.00 0.00 0.18 24 1016.2
20260507184534 47 45 0.0 5.0 0.00 0.00 0.18 23 1016.0
20260507184028 48 18 1.0 3.0 0.00 0.00 0.18 22 1016.1
20260507183523 48 342 1.0 2.0 0.00 0.00 0.18 21 1016.1
20260507183018 49 324 2.0 4.0 0.00 0.00 0.18 20 1016.1
20260507182512 49 4 1.0 2.0 0.00 0.00 0.18 20 1016.0
20260507182008 50 355 2.0 4.0 0.00 0.00 0.18 18 1016.0
20260507181502 50 337 3.0 4.0 0.00 0.00 0.18 17 1015.8
20260507180957 50 0 3.0 7.0 0.00 0.00 0.18 17 1015.9
20260507180452 51 351 4.0 6.0 0.00 0.00 0.18 16 1015.9
20260507175946 51 31 0.0 2.0 0.00 0.00 0.18 15 1015.8
20260507175442 52 9 3.0 4.0 0.00 0.00 0.18 14 1015.7
20260507174936 53 18 1.0 5.0 0.00 0.00 0.18 13 1015.8
20260507174431 54 342 3.0 7.0 0.00 0.00 0.18 13 1015.7
20260507173926 54 45 0.0 7.0 0.00 0.00 0.18 13 1015.7
20260507173420 55 342 2.0 6.0 0.00 0.00 0.18 10 1015.8
20260507172916 56 328 5.0 10.0 0.00 0.00 0.18 10 1015.7
20260507172410 56 45 0.0 7.0 0.00 0.00 0.18 10 1015.6
20260507171905 56 342 2.0 5.0 0.00 0.00 0.18 9 1015.7
20260507171400 56 355 7.0 7.0 0.00 0.00 0.18 8 1015.6
20260507170854 56 0 1.0 8.0 0.00 0.00 0.18 8 1015.5
20260507170350 57 292 7.0 7.0 0.00 0.00 0.18 7 1015.5
20260507165844 57 315 2.0 9.0 0.00 0.00 0.18 6 1015.6
20260507165339 58 333 4.0 7.0 0.00 0.00 0.18 10 1015.5
20260507164834 58 337 2.0 10.0 0.00 0.00 0.18 13 1015.4
20260507164328 58 342 6.0 6.0 0.00 0.00 0.18 12 1015.4
20260507163824 57 0 2.0 6.0 0.00 0.00 0.18 12 1015.5
20260507163318 57 351 2.0 8.0 0.00 0.00 0.18 13 1015.4
20260507162813 57 310 2.0 8.0 0.00 0.00 0.18 12 1015.4
20260507162308 57 301 4.0 12.0 0.00 0.00 0.18 12 1015.4
20260507161802 57 306 5.0 10.0 0.00 0.00 0.18 12 1015.3
20260507161258 57 342 7.0 10.0 0.00 0.00 0.18 10 1015.3
20260507160752 57 310 5.0 9.0 0.00 0.00 0.18 12 1015.4
20260507160247 57 306 6.0 9.0 0.00 0.00 0.17 12 1015.4
20260507155742 57 9 4.0 9.0 0.00 0.00 0.17 14 1015.4
20260507155236 57 315 4.0 12.0 0.00 0.00 0.17 12 1015.4
20260507154732 57 274 4.0 10.0 0.00 0.00 0.17 12 1015.4
20260507154226 57 306 4.0 8.0 0.00 0.00 0.17 15 1015.4
20260507153721 57 67 3.0 16.0 0.00 0.00 0.17 15 1015.4
20260507153216 57 306 6.0 14.0 0.00 0.00 0.17 15 1015.3
20260507152710 57 288 9.0 12.0 0.00 0.00 0.17 14 1015.2
20260507152206 58 297 7.0 14.0 0.00 0.00 0.17 12 1015.2
20260507151700 58 252 9.0 13.0 0.00 0.00 0.17 12 1015.1
20260507151155 59 274 8.0 14.0 0.00 0.00 0.17 13 1015.3
20260507150650 59 270 10.0 13.0 0.00 0.00 0.17 12 1015.2
20260507150144 59 270 6.0 13.0 0.00 0.00 0.17 12 1015.2
20260507145640 59 306 3.0 11.0 0.00 0.00 0.17 12 1015.2
20260507145134 58 324 3.0 11.0 0.00 0.00 0.17 15 1015.2
20260507144629 58 297 8.0 10.0 0.00 0.00 0.17 13 1015.2
20260507144124 58 247 6.0 16.0 0.00 0.00 0.17 12 1015.0
20260507143618 58 270 5.0 16.0 0.00 0.00 0.17 12 1015.1
20260507143114 58 252 10.0 14.0 0.00 0.00 0.17 13 1015.1
20260507142608 58 261 8.0 16.0 0.00 0.00 0.17 15 1015.2
20260507142103 59 279 6.0 13.0 0.00 0.00 0.17 10 1015.2
20260507141558 59 283 4.0 11.0 0.00 0.00 0.13 13 1015.2
20260507141053 58 324 7.0 14.0 0.00 0.00 0.13 12 1015.3
20260507140548 58 355 4.0 11.0 0.00 0.00 0.13 16 1015.2
20260507140042 58 288 10.0 15.0 0.00 0.00 0.13 14 1015.1
20260507135636 58 288 9.0 9.0 0.00 0.00 0.13 15 1015.2
20260507135633 58 297 5.0 11.0 0.00 0.00 0.13 16 1015.2
20260507135631 58 315 13.0 15.0 0.00 0.00 0.13 17 1015.3
20260507135537 58 288 9.0 9.0 0.00 0.00 0.13 15 1015.2
20260507135032 58 297 5.0 11.0 0.00 0.00 0.13 16 1015.2
20260507134527 58 315 13.0 15.0 0.00 0.00 0.13 17 1015.3
20260507134022 58 274 15.0 17.0 0.00 0.00 0.13 17 1015.2
20260507133516 58 265 7.0 13.0 0.00 0.00 0.13 17 1015.2
20260507133011 58 292 11.0 20.0 0.00 0.00 0.13 16 1015.2
20260507132506 58 274 8.0 14.0 0.00 0.00 0.13 14 1015.2
20260507132001 58 310 10.0 12.0 0.00 0.00 0.13 16 1015.2
20260507131456 58 256 5.0 15.0 0.00 0.00 0.13 13 1015.0
20260507130950 58 279 3.0 9.0 0.00 0.00 0.13 15 1015.1
20260507130445 58 306 5.0 11.0 0.00 0.00 0.13 15 1015.1
20260507125940 58 270 6.0 15.0 0.00 0.00 0.13 15 1015.2
20260507125435 58 297 5.0 16.0 0.00 0.00 0.13 16 1015.2
20260507124930 58 342 11.0 11.0 0.00 0.00 0.13 19 1015.0
20260507124424 58 306 3.0 11.0 0.00 0.00 0.13 17 1015.1
20260507123919 58 315 11.0 16.0 0.00 0.00 0.13 18 1015.0
20260507123414 57 279 4.0 13.0 0.00 0.00 0.13 20 1015.0
20260507122909 57 279 11.0 14.0 0.00 0.00 0.13 20 1015.0
20260507122404 57 310 5.0 10.0 0.00 0.00 0.13 20 1015.0
20260507121858 57 315 4.0 13.0 0.00 0.00 0.13 22 1015.0
20260507121353 57 146 6.0 11.0 0.00 0.00 0.13 24 1015.0
20260507120848 57 252 6.0 12.0 0.00 0.00 0.11 25 1014.9
20260507120343 57 292 12.0 12.0 0.00 0.00 0.11 24 1014.8
20260507115838 57 306 6.0 10.0 0.00 0.00 0.11 24 1014.9
20260507115332 56 320 7.0 11.0 0.00 0.00 0.11 27 1014.9
20260507114827 56 283 5.0 13.0 0.00 0.00 0.11 25 1014.8
20260507114322 56 297 12.0 14.0 0.00 0.00 0.11 29 1014.9
20260507113817 56 288 15.0 15.0 0.00 0.00 0.11 28 1014.9
20260507113312 56 320 11.0 11.0 0.00 0.00 0.11 28 1015.0
20260507112806 56 18 4.0 12.0 0.00 0.00 0.11 29 1015.0
20260507112301 56 297 6.0 17.0 0.00 0.00 0.11 26 1014.9
20260507111756 56 306 8.0 15.0 0.00 0.00 0.11 27 1015.0
20260507111251 56 261 4.0 17.0 0.00 0.00 0.11 32 1015.1
20260507110746 56 261 12.0 14.0 0.00 0.00 0.11 31 1015.0
20260507110240 57 315 5.0 17.0 0.00 0.00 0.11 35 1015.0
20260507105735 57 0 1.0 20.0 0.00 0.00 0.11 29 1014.9
20260507105230 57 270 8.0 9.0 0.00 0.00 0.11 27 1014.8
20260507104725 56 310 3.0 8.0 0.00 0.00 0.11 30 1014.8
20260507104220 55 270 9.0 14.0 0.00 0.00 0.11 30 1014.8
20260507103714 55 261 14.0 17.0 0.00 0.00 0.11 29 1014.7
20260507103209 55 265 6.0 14.0 0.00 0.00 0.11 28 1014.7
20260507102704 55 261 13.0 18.0 0.00 0.00 0.11 27 1014.7
20260507102159 56 270 15.0 18.0 0.00 0.00 0.11 25 1014.6
20260507101654 56 247 6.0 14.0 0.00 0.00 0.11 25 1014.6
20260507101148 57 238 13.0 16.0 0.00 0.00 0.11 27 1014.5
20260507100643 57 351 4.0 13.0 0.00 0.00 0.11 27 1014.6
20260507100138 57 252 10.0 11.0 0.00 0.00 0.11 30 1014.4
20260507095633 57 256 9.0 10.0 0.00 0.00 0.11 34 1014.5
20260507095128 56 256 7.0 9.0 0.00 0.00 0.11 31 1014.5
20260507094622 56 274 8.0 8.0 0.00 0.00 0.11 34 1014.5
20260507094117 56 297 6.0 14.0 0.00 0.00 0.11 34 1014.5
20260507093612 56 270 3.0 11.0 0.00 0.00 0.11 37 1014.5
20260507093107 56 270 4.0 5.0 0.00 0.00 0.11 35 1014.3
20260507092602 56 243 13.0 16.0 0.00 0.00 0.11 36 1014.3
20260507092056 56 292 5.0 13.0 0.00 0.00 0.11 35 1014.3
20260507091551 55 279 4.0 12.0 0.00 0.00 0.11 36 1014.3
20260507091046 55 252 6.0 17.0 0.00 0.00 0.11 36 1014.2
20260507090541 55 270 11.0 13.0 0.00 0.00 0.11 35 1014.1
20260507090036 55 292 4.0 17.0 0.00 0.00 0.11 34 1014.2
20260507085530 56 288 6.0 17.0 0.00 0.00 0.11 32 1014.2
20260507085025 58 274 11.0 11.0 0.00 0.00 0.11 31 1014.2
20260507084520 58 270 8.0 9.0 0.00 0.00 0.11 34 1014.1
20260507084015 57 27 0.0 7.0 0.00 0.00 0.11 32 1014.2
20260507083510 56 275 4.0 14.0 0.00 0.00 0.11 34 1014.2
20260507083005 56 297 4.0 9.0 0.00 0.00 0.11 33 1014.1
20260507082459 56 306 4.0 12.0 0.00 0.00 0.09 33 1014.1
20260507081954 56 243 2.0 9.0 0.00 0.00 0.09 35 1014.1
20260507081449 56 283 4.0 8.0 0.00 0.00 0.09 36 1014.0
20260507080944 55 279 3.0 11.0 0.00 0.00 0.09 36 1014.0
20260507080439 55 288 6.0 7.0 0.00 0.00 0.09 39 1013.8
20260507075933 55 163 3.0 14.0 0.00 0.00 0.09 38 1013.9
20260507075428 54 315 2.0 9.0 0.00 0.00 0.09 40 1013.9
20260507074923 54 306 4.0 11.0 0.00 0.00 0.09 42 1013.8
20260507074418 54 270 6.0 12.0 0.00 0.00 0.09 42 1013.7
20260507073912 54 256 10.0 11.0 0.00 0.00 0.09 42 1013.7
20260507073407 54 234 10.0 10.0 0.00 0.00 0.09 42 1013.7
20260507072902 54 265 7.0 12.0 0.00 0.00 0.09 43 1013.6
20260507072357 54 319 4.0 9.0 0.00 0.00 0.09 42 1013.7
20260507071852 54 256 8.0 10.0 0.00 0.00 0.09 43 1013.6
20260507071346 54 234 6.0 8.0 0.00 0.00 0.07 44 1013.6
20260507070841 54 315 1.0 7.0 0.00 0.00 0.07 43 1013.6
20260507070336 54 297 2.0 8.0 0.00 0.00 0.07 44 1013.6
20260507065831 55 225 6.0 10.0 0.00 0.00 0.07 47 1013.6
20260507065326 55 333 1.0 5.0 0.00 0.00 0.07 47 1013.6
20260507064821 55 180 2.0 2.0 0.00 0.00 0.06 50 1013.5
20260507064315 54 90 1.0 1.0 0.00 0.00 0.06 52 1013.5
20260507063810 53 135 1.0 2.0 0.00 0.00 0.06 53 1013.5
20260507063305 52 180 1.0 2.0 0.00 0.00 0.06 55 1013.7
20260507062800 51 135 0.0 2.0 0.00 0.00 0.05 56 1013.5
20260507062255 50 90 0.0 0.0 0.00 0.00 0.05 55 1013.4
20260507061749 50 126 1.0 1.0 0.00 0.00 0.05 58 1013.5
20260507061244 49 180 2.0 2.0 0.00 0.00 0.04 60 1013.5
20260507060739 48 85 0.0 2.0 0.00 0.00 0.04 60 1013.4
20260507055724 46 0 0.0 2.0 0.00 0.00 0.04 61 1013.3
20260507055218 45 0 2.0 2.0 0.00 0.00 0.04 61 1013.3
20260507054713 44 45 1.0 1.0 0.00 0.00 0.04 66 1013.3
20260507054208 43 90 0.0 2.0 0.00 0.00 0.04 67 1013.3
20260507053703 42 45 1.0 1.0 0.00 0.00 0.04 68 1013.2
20260507053158 41 27 2.0 3.0 0.00 0.00 0.04 69 1013.2
20260507052652 40 31 1.0 3.0 0.00 0.00 0.04 71 1013.0
20260507052147 39 0 2.0 3.0 0.00 0.00 0.04 72 1013.0
20260507051642 38 45 1.0 3.0 0.00 0.00 0.04 74 1013.0
20260507051137 37 4 2.0 3.0 0.00 0.00 0.04 75 1012.9
20260507050632 36 0 2.0 3.0 0.00 0.00 0.04 75 1012.9
20260507050126 34 0 3.0 3.0 0.00 0.00 0.04 76 1012.8
20260507045621 33 45 0.0 3.0 0.00 0.00 0.04 76 1012.6
20260507045116 32 45 3.0 4.0 0.00 0.00 0.04 76 1012.6
20260507044611 30 45 2.0 2.0 0.00 0.00 0.04 76 1012.5
20260507044106 29 45 3.0 3.0 0.00 0.00 0.04 75 1012.5
20260507043600 28 4 1.0 3.0 0.00 0.00 0.03 74 1012.6
20260507043055 27 0 1.0 3.0 0.00 0.00 0.03 74 1012.5
20260507042550 27 0 3.0 4.0 0.00 0.00 0.03 73 1012.4
20260507042045 26 4 2.0 3.0 0.00 0.00 0.03 73 1012.5
20260507041540 26 45 1.0 3.0 0.00 0.00 0.03 73 1012.4
20260507041034 26 45 0.0 1.0 0.00 0.00 0.03 73 1012.4
20260507040529 26 45 1.0 3.0 0.00 0.00 0.03 73 1012.4
20260507040024 25 0 3.0 3.0 0.00 0.00 0.03 72 1012.3
20260507035519 25 45 0.0 2.0 0.00 0.00 0.03 72 1012.2
20260507035013 25 0 2.0 2.0 0.00 0.00 0.03 72 1012.2
20260507034508 25 45 0.0 1.0 0.00 0.00 0.03 71 1012.2
20260507034003 25 45 0.0 1.0 0.00 0.00 0.03 72 1012.1
20260507033459 25 0 1.0 2.0 0.00 0.00 0.03 72 1012.2
20260507032953 26 0 1.0 3.0 0.00 0.00 0.03 72 1012.1
20260507032447 26 0 2.0 2.0 0.00 0.00 0.03 71 1012.1
20260507031942 26 45 1.0 1.0 0.00 0.00 0.03 71 1012.1
20260507031437 26 45 1.0 3.0 0.00 0.00 0.03 71 1012.1
20260507030932 26 0 3.0 3.0 0.00 0.00 0.03 71 1012.1
20260507030427 26 45 1.0 2.0 0.00 0.00 0.02 70 1012.1
20260507025921 26 45 1.0 1.0 0.00 0.00 0.02 71 1012.1
20260507025416 26 45 0.0 1.0 0.00 0.00 0.02 70 1012.0
20260507024911 26 45 1.0 1.0 0.00 0.00 0.02 70 1012.1
20260507024406 26 45 0.0 3.0 0.00 0.00 0.02 70 1012.0
20260507023901 26 0 2.0 3.0 0.00 0.00 0.02 70 1011.9
20260507023355 26 0 1.0 1.0 0.00 0.00 0.02 70 1011.8
20260507022850 26 0 0.0 2.0 0.00 0.00 0.02 69 1011.7
20260507022345 26 45 0.0 0.0 0.00 0.00 0.02 69 1011.7
20260507021840 26 45 0.0 0.0 0.00 0.00 0.02 69 1011.8
20260507021335 27 45 0.0 0.0 0.00 0.00 0.01 69 1011.8
20260507020829 27 45 0.0 0.0 0.00 0.00 0.01 68 1011.8
20260507020324 27 45 0.0 0.0 0.00 0.00 0.01 69 1011.7
20260507015819 28 45 0.0 0.0 0.00 0.00 0.01 68 1011.8
20260507015314 28 45 0.0 0.0 0.00 0.00 0.01 69 1011.8
20260507014809 28 45 0.0 0.0 0.00 0.00 0.01 69 1011.8
20260507014303 28 45 0.0 2.0 0.00 0.00 0.01 69 1011.9
20260507013758 28 45 1.0 2.0 0.00 0.00 0.01 69 1011.7
20260507013253 28 9 2.0 2.0 0.00 0.00 0.01 69 1011.7
20260507012748 28 0 1.0 2.0 0.00 0.00 0.01 69 1011.7
20260507012243 28 0 3.0 4.0 0.00 0.00 0.01 68 1011.9
20260507011737 28 45 1.0 2.0 0.00 0.00 0.01 67 1011.7
20260507011232 27 0 1.0 2.0 0.00 0.00 0.00 67 1011.6
20260507010727 27 0 0.0 0.0 0.00 0.00 0.00 67 1011.6
20260507010222 27 45 0.0 0.0 0.00 0.00 0.00 67 1011.6
20260507005717 28 45 0.0 0.0 0.00 0.00 0.00 66 1011.5
20260507005211 28 45 0.0 0.0 0.00 0.00 0.00 66 1011.5
20260507004706 28 45 0.0 1.0 0.00 0.00 0.00 66 1011.5
20260507004201 28 45 0.0 2.0 0.00 0.00 0.00 66 1011.6
20260507003656 28 0 2.0 3.0 0.00 0.00 0.00 66 1011.5
20260507003151 28 0 0.0 1.0 0.00 0.00 0.00 65 1011.3
20260507002645 29 45 0.0 0.0 0.00 0.00 0.00 66 1011.4
20260507002140 29 90 0.0 0.0 0.00 0.00 0.00 65 1011.4
20260507001635 29 90 0.0 1.0 0.00 0.00 0.00 65 1011.4
20260507001130 29 0 1.0 2.0 0.00 0.00 0.00 64 1011.4
20260507000625 29 0 2.0 3.0 0.00 0.00 0.00 64 1011.3
20260507000119 29 45 1.0 1.0 0.00 0.00 0.00 63 1011.3
20260506235614 29 45 0.0 0.0 0.00 0.00 0.00 63 1011.2
20260506235109 29 45 0.0 0.0 0.00 0.00 0.00 63 1011.3
20260506234604 29 0 0.0 0.0 0.00 0.00 0.00 63 1011.3
20260506234059 29 0 0.0 0.0 0.00 0.00 0.00 63 1011.3
20260506233553 29 0 0.0 2.0 0.00 0.00 0.00 62 1011.2
20260506233048 29 45 0.0 0.0 0.00 0.00 0.00 62 1011.2
20260506232543 30 45 0.0 0.0 0.00 0.00 0.00 61 1011.2
20260506232038 30 90 0.0 0.0 0.00 0.00 0.00 60 1011.3
20260506231533 30 90 0.0 0.0 0.00 0.00 0.00 60 1011.3
20260506231027 30 90 0.0 0.0 0.00 0.00 0.00 59 1011.3
20260506230522 31 90 0.0 0.0 0.00 0.00 0.00 59 1011.2
20260506230017 31 90 0.0 0.0 0.00 0.00 0.00 59 1011.2
20260506225512 31 135 0.0 0.0 0.00 0.00 0.00 58 1011.1
20260506225007 31 135 0.0 0.0 0.00 0.00 0.00 58 1011.1
20260506224501 32 0 0.0 0.0 0.00 0.00 0.00 58 1011.0
20260506223956 32 0 2.0 2.0 0.00 0.00 0.00 57 1011.0
20260506223451 32 0 1.0 2.0 0.00 0.00 0.00 57 1010.9
20260506222946 32 0 1.0 1.0 0.00 0.00 0.00 56 1010.9
20260506222441 32 0 1.0 1.0 0.00 0.00 0.00 56 1010.9
20260506221935 32 45 0.0 0.0 0.00 0.00 0.00 55 1010.8
20260506221430 33 45 0.0 0.0 0.00 0.00 0.00 55 1010.8
20260506220925 33 45 0.0 0.0 0.00 0.00 0.00 55 1010.8
20260506220420 33 45 0.0 0.0 0.00 0.00 0.00 54 1010.7
20260506215915 33 45 0.0 0.0 0.00 0.00 0.00 53 1010.7
20260506215409 33 45 0.0 0.0 0.00 0.00 0.00 53 1010.7
20260506214904 33 180 0.0 0.0 0.00 0.00 0.00 51 1010.6
20260506214359 33 180 0.0 0.0 0.00 0.00 0.00 51 1010.6
20260506213854 34 180 0.0 0.0 0.00 0.00 0.00 51 1010.5
20260506213349 34 180 0.0 0.0 0.00 0.00 0.00 50 1010.5
20260506212843 35 180 0.0 0.0 0.00 0.00 0.00 50 1010.5
20260506212338 35 180 0.0 1.0 0.00 0.00 0.00 49 1010.5
20260506211833 35 180 1.0 1.0 0.00 0.00 0.00 48 1010.4
20260506211328 35 180 1.0 2.0 0.00 0.00 0.00 48 1010.4
20260506210823 36 135 0.0 0.0 0.00 0.00 0.00 47 1010.3
20260506210317 36 135 0.0 0.0 0.00 0.00 0.00 47 1010.2
20260506205812 36 135 1.0 2.0 0.00 0.00 0.00 47 1010.2
20260506205307 36 135 2.0 2.0 0.00 0.00 0.00 46 1010.2
20260506204802 36 135 1.0 1.0 0.00 0.00 0.00 46 1010.1
20260506204257 37 135 1.0 1.0 0.00 0.00 0.00 45 1010.2